Temp
12 11 10 13 12 15 16 15 15 17 15 14 12 13 16 17 13 12 13 14 13 13 15 15 14 14 14 14 14 14 15 15 14 13 12 12 12 12 12 12 11 11 10 10
11 10 11 14 12 12 13 14 14 15 14 13 12 12 14 15 14 16 16 17 16 16 14 13 12 13 13 13 14 14 14 15 14 14 13 13 13 12 12 12 11 10 10 10
9 12 11 11 12 12 12 12 13 15 14 12 11 16 16 16 14 15 15 17 17 16 16 13 12 12 13 12 13 13 14 15 14 14 13 12 12 12 11 11 11 10 10 9
9 10 12 11 12 11 11 12 14 14 15 12 13 15 15 17 17 17 16 14 15 14 15 14 13 12 12 13 13 13 14 14 14 14 13 13 12 11 12 12 11 10 9 9
11 9 10 10 11 11 12 12 12 12 12 11 12 12 12 14 16 17 18 15 13 13 13 13 13 13 13 13 13 13 13 14 14 14 14 13 13 13 13 12 11 9 9 8
9 8 9 10 8 10 9 10 9 8 8 6 10 13 19 17 19 19 19 17 16 12 11 11 12 14 13 13 12 12 12 13 13 14 13 13 13 13 11 10 10 9 8 8
9 8 8 8 9 9 10 9 7 7 4 9 10 11 16 16 16 16 17 17 15 13 11 10 10 11 12 11 11 11 12 11 12 12 13 13 13 13 12 11 10 9 8 7
8 9 7 7 9 10 8 9 9 10 9 12 10 11 14 14 13 14 14 13 13 14 11 10 9 10 10 10 10 11 11 11 11 12 12 13 13 13 12 12 11 10 9 9
6 10 7 8 8 9 9 8 10 8 3 7 11 11 13 14 14 14 14 14 14 14 12 11 10 8 10 10 10 11 10 11 11 12 12 12 13 12 12 12 10 10 9 8
10 9 6 7 8 8 8 8 9 5 8 8 13 12 14 17 18 15 14 13 13 12 12 10 10 8 9 10 10 11 11 11 12 11 12 12 13 12 12 11 10 9 9 7
5 9 5 6 5 7 7 6 5 6 7 10 10 13 11 14 15 16 14 12 11 11 10 9 9 8 9 10 10 11 11 11 11 12 12 12 12 12 11 10 10 9 8 7
9 7 5 5 5 5 6 8 7 7 8 6 9 14 15 13 13 13 15 15 13 11 10 9 8 7 8 9 10 10 11 11 12 12 12 12 12 11 10 10 9 9 8 7
8 7 7 8 6 3 2 6 8 7 7 6 10 15 12 13 15 15 15 16 13 11 11 9 8 8 7 8 9 10 11 11 12 11 11 10 10 10 10 10 9 8 8 7
10 7 8 10 10 6 5 2 6 7 6 14 12 16 16 16 15 15 15 13 13 12 11 10 8 8 7 9 10 11 11 12 11 11 11 10 10 10 10 9 8 8 7 6
8 8 8 9 8 6 7 5 5 7 10 10 15 14 14 13 14 14 13 12 12 12 11 10 10 9 7 8 10 12 13 12 11 10 10 10 10 10 9 9 8 7 6 6
5 7 7 9 9 9 9 7 7 9 9 10 11 10 11 11 12 11 10 10 9 9 9 11 10 9 8 8 9 10 10 11 11 10 10 10 8 8 8 7 7 6 5 5
5 6 8 9 10 9 7 9 8 6 6 9 9 11 12 12 11 6 4 3 3 3 3 3 6 8 9 11 11 11 13 12 10 9 9 9 8 7 6 7 6 5 5 4
5 5 6 8 7 8 11 9 10 10 11 9 10 11 4 3 2 1 0 -0 0 0 0 0 0 1 3 5 8 10 10 10 9 8 8 7 6 6 5 6 5 5 4 4
4 5 6 7 7 8 9 5 5 6 4 1 1 1 1 1 2 1 -0 -1 -1 -1 -1 -2 -2 -2 -0 1 1 2 6 7 7 6 7 6 5 4 4 4 4 4 4 3
4 5 5 6 7 7 5 1 1 2 4 -1 -0 -1 -1 1 4 0 -1 -2 -2 -2 -3 -3 -4 -3 -2 -2 -3 -1 2 4 3 6 7 6 5 5 4 4 3 4 4 4
2 4 5 6 6 3 1 0 1 6 2 -1 -2 -2 -2 -1 -2 -1 -2 -3 -3 -3 -4 -4 -5 -4 -4 -5 -5 -2 -1 0 2 3 4 4 4 4 4 4 3 4 3 2
-1 1 2 2 4 3 0 1 2 -1 -1 -2 -2 -3 -2 -2 -2 -2 -3 -3 -4 -5 -5 -6 -7 -6 -6 -7 -6 -4 -3 -3 -1 3 3 3 3 2 3 3 2 2 2 0
0 -0 -1 -0 1 -1 -1 -1 -2 -2 -1 -3 -4 -4 -5 -5 -4 -5 -4 -4 -6 -6 -6 -8 -8 -7 -8 -8 -8 -6 -6 -4 -4 -1 1 2 2 1 2 2 0 -1 -1 -2
-0 -0 -1 -2 -1 -2 -3 -5 -5 -4 -4 -5 -5 -6 -6 -7 -6 -5 -5 -5 -6 -7 -7 -9 -9 -9 -9 -10 -9 -9 -8 -6 -5 -3 -2 -1 -0 -0 -0 -0 0 -1 -2 -2
-1 -1 -3 -1 -2 -3 -6 -7 -6 -6 -6 -7 -7 -7 -7 -7 -7 -7 -7 -8 -8 -9 -9 -11 -11 -10 -11 -11 -11 -10 -10 -9 -7 -5 -3 -2 -2 -1 -1 -1 -1 -1 1 1
-6 -6 -2 -2 -7 -6 -5 -8 -9 -9 -9 -9 -10 -10 -9 -9 -9 -10 -10 -11 -11 -12 -12 -12 -13 -14 -14 -14 -13 -12 -12 -11 -9 -6 -4 -3 -2 -2 -2 -2 -2 -1 0 0
Height
761 771 773 753 758 752 749 754 750 742 742 747 744 737 711 711 717 715 708 706 704 699 695 701 704 711 716 721 727 733 737 744 752 756 761 765 768 772 774 775 779 781 781 780
769 769 757 750 758 758 758 757 752 746 745 750 742 730 712 706 703 693 688 687 683 684 690 693 696 702 707 713 719 724 731 736 743 749 754 758 763 768 771 772 775 777 778 777
766 748 749 757 755 758 759 761 752 746 743 748 747 708 699 686 687 683 677 670 671 673 677 683 688 691 697 702 708 716 723 730 736 744 750 754 760 763 767 768 770 772 774 775
762 748 746 751 753 755 760 751 746 745 747 756 742 723 703 686 677 672 663 666 663 666 667 672 677 682 686 692 701 708 715 723 731 737 743 745 749 754 758 762 765 769 771 771
744 752 750 748 746 750 749 748 749 751 757 761 749 754 705 691 677 667 653 657 659 659 661 663 665 670 676 684 690 700 708 716 723 730 736 740 745 749 755 760 762 765 767 767
746 748 747 743 752 746 754 756 765 775 776 798 749 741 656 682 662 654 649 650 652 656 658 660 662 667 672 679 685 693 701 708 715 723 729 734 739 745 751 755 758 761 762 764
743 746 744 744 750 751 750 760 793 802 821 766 751 744 670 671 658 660 656 651 650 652 655 658 660 663 667 673 679 687 694 702 709 715 722 728 734 739 744 748 752 756 758 759
746 745 744 742 735 738 756 747 758 772 776 739 745 731 684 667 663 660 657 654 651 650 655 656 658 660 664 669 675 681 687 694 701 709 715 722 729 733 739 744 747 751 753 756
752 728 735 736 734 731 748 756 741 758 800 777 729 708 679 659 656 655 654 652 652 651 653 655 658 662 665 668 672 676 682 690 696 702 709 715 722 727 733 739 744 746 750 752
710 724 741 739 736 736 736 740 750 776 767 770 707 704 682 655 647 650 654 653 653 654 655 657 659 662 666 669 673 677 681 685 691 699 704 710 716 723 729 733 738 742 745 747
724 713 748 744 745 730 742 745 755 754 747 734 732 689 670 658 654 648 651 654 657 657 659 659 661 662 664 668 672 676 679 684 689 694 700 706 711 718 724 728 732 736 739 741
704 717 743 736 731 733 729 721 730 739 738 745 725 673 651 655 653 653 649 648 652 655 657 659 660 662 663 665 668 671 676 680 684 690 696 701 707 712 717 721 726 731 734 735
703 713 721 715 732 743 746 724 715 716 724 730 715 657 655 655 649 650 651 651 655 656 657 660 661 661 662 663 667 670 673 677 682 688 693 697 700 704 709 714 719 724 727 730
680 700 700 688 684 710 725 736 714 716 731 667 676 650 648 648 652 654 655 657 658 658 657 658 661 662 662 663 664 665 668 672 677 682 686 689 692 696 701 706 712 716 720 724
684 688 690 686 686 705 696 710 714 709 686 697 644 659 660 656 654 657 662 662 663 661 661 662 660 658 659 660 660 662 664 667 671 676 679 681 685 691 695 699 705 710 714 718
696 684 686 673 675 675 682 693 696 685 683 684 669 673 666 663 661 664 668 669 671 674 673 670 665 661 660 662 662 663 663 664 666 669 670 674 678 683 687 693 699 703 707 711
694 686 677 662 662 673 683 672 672 687 686 673 681 654 661 660 668 684 687 687 687 686 684 686 683 676 667 659 655 655 655 656 660 662 664 666 670 674 679 686 691 696 700 705
692 689 681 666 677 657 638 646 649 654 648 664 663 660 689 699 702 705 704 699 695 695 692 688 685 681 676 668 659 653 650 650 651 653 656 658 661 665 671 677 683 689 694 698
687 686 681 671 665 656 645 665 672 666 687 704 703 701 702 700 693 701 706 707 706 707 701 698 693 686 677 670 663 655 648 644 644 646 647 649 653 658 663 668 673 680 686 691
679 677 680 673 658 657 663 688 684 681 682 713 711 711 709 695 683 703 707 708 708 706 703 698 691 685 679 671 664 656 648 643 639 636 635 639 644 649 653 659 665 672 678 684
691 678 665 660 660 676 691 690 680 667 703 717 718 718 716 714 717 712 709 707 707 706 701 696 692 687 683 676 669 660 653 646 641 637 634 634 637 641 645 652 659 666 673 679
714 702 694 687 669 672 693 684 688 713 715 716 718 719 718 717 712 709 708 708 706 702 698 698 694 688 683 678 670 665 660 654 643 635 632 632 633 637 641 646 653 660 667 673
708 708 714 711 702 710 709 709 712 715 715 718 720 722 722 720 716 714 709 708 708 707 704 701 697 691 686 681 677 671 665 658 647 638 635 632 632 634 637 641 648 656 662 668
705 704 707 713 707 708 712 718 718 718 720 724 725 726 725 724 721 717 712 710 709 709 707 705 698 690 686 682 678 675 669 661 652 640 636 636 635 635 638 641 644 649 655 661
705 705 709 704 707 712 719 724 725 725 726 729 728 728 727 726 723 719 715 712 710 710 712 710 701 692 685 682 678 675 669 663 658 642 638 637 638 637 637 640 642 644 646 649
716 717 707 706 724 720 721 729 732 732 733 732 728 727 728 728 726 724 719 716 714 714 717 711 701 696 689 682 678 675 670 668 663 644 642 640 639 638 639 640 642 644 646 647
Wind_Speed
2 4 9 21 6 2 1 4 5 3 3 5 9 14 25 10 7 12 15 14 15 18 16 23 32 34 35 38 40 41 43 41 37 34 30 25 24 22 19 17 15 13 12 9
1 10 11 1 6 7 6 5 8 6 2 5 9 17 21 14 12 19 20 20 20 15 12 13 22 29 32 35 40 42 45 45 42 40 35 27 27 23 20 17 16 15 14 11
9 5 3 9 5 6 6 8 4 6 2 5 7 13 10 5 7 11 12 19 16 16 16 14 15 27 31 35 40 39 44 47 45 41 35 24 22 15 21 21 20 19 16 13
8 5 6 5 6 8 6 6 4 2 2 5 2 9 8 7 11 7 13 10 13 13 12 13 16 17 30 35 37 43 45 47 45 43 40 37 28 19 24 26 22 19 18 14
7 8 5 5 7 9 5 2 3 2 1 5 2 3 7 3 9 10 9 8 10 10 11 13 16 22 32 34 38 41 45 46 45 45 44 41 33 27 18 21 21 20 18 15
4 1 4 6 2 2 7 6 6 4 2 3 8 7 15 6 7 3 4 5 5 7 8 8 11 20 24 28 34 38 40 45 46 47 45 43 39 30 21 21 22 21 19 16
2 5 3 3 5 3 3 7 1 3 2 7 0 4 9 10 12 6 7 9 6 5 6 7 9 10 19 26 31 35 38 36 44 45 46 45 41 36 31 28 26 23 20 19
7 5 11 7 7 8 7 7 6 8 5 4 3 8 7 9 9 8 8 10 8 3 3 6 7 8 15 24 29 34 36 34 41 44 46 45 42 39 33 29 26 23 20 17
6 6 1 2 2 4 7 6 2 6 3 3 5 8 9 14 12 6 9 5 7 4 3 5 4 6 11 19 26 32 32 32 40 45 44 44 43 39 35 29 25 22 19 18
6 1 1 1 0 2 4 4 3 2 3 5 5 6 7 8 8 5 8 8 7 4 5 4 3 4 10 16 22 27 30 35 39 40 42 43 41 38 34 29 26 24 20 18
3 3 1 2 8 11 4 4 1 3 4 5 2 6 7 9 7 8 7 5 7 6 6 6 3 4 9 11 17 24 27 30 33 38 40 39 38 37 32 30 28 26 22 20
6 3 5 8 2 2 2 5 7 5 6 4 2 9 3 6 6 5 3 4 4 6 6 4 3 3 6 12 17 23 27 32 35 35 36 37 36 35 34 33 30 27 24 21
7 2 1 2 1 3 4 6 5 2 2 8 7 7 1 3 1 3 4 4 4 6 4 3 4 6 6 11 14 19 25 30 31 30 31 33 35 35 36 36 32 29 26 23
11 7 11 11 7 4 5 6 8 3 2 12 11 11 1 2 3 3 2 6 7 5 2 3 5 6 6 12 18 22 26 29 29 30 31 33 36 38 38 37 35 31 28 25
5 7 14 21 10 3 5 5 10 13 24 8 25 16 7 8 0 1 3 6 6 7 7 6 7 7 7 11 19 24 29 30 31 31 32 37 38 37 38 38 36 32 29 26
3 5 8 13 20 23 16 12 12 22 25 19 29 21 9 6 3 5 7 8 10 9 10 11 11 10 7 10 16 22 26 31 31 33 38 38 36 36 38 37 35 33 30 28
4 6 9 20 15 12 11 22 22 6 8 14 16 22 6 11 7 11 14 14 14 16 17 15 16 14 13 24 24 24 34 34 34 36 36 37 36 37 38 37 36 35 32 30
5 1 4 7 5 20 7 12 21 24 25 14 17 17 10 7 4 11 14 14 15 16 17 18 17 20 26 29 31 32 26 28 32 35 37 37 37 37 37 37 38 35 34 32
14 8 4 4 6 3 6 5 4 6 4 10 7 11 11 12 4 6 15 13 12 11 11 13 21 25 27 27 31 30 26 22 26 28 35 37 38 35 36 38 39 37 35 33
12 14 9 4 4 6 3 4 6 4 4 9 10 11 15 12 3 4 14 13 12 11 15 17 23 23 25 32 35 27 23 23 21 31 38 37 38 38 39 38 38 38 37 35
4 4 13 13 9 1 12 10 5 4 3 4 5 5 8 5 2 10 11 12 11 12 17 23 24 20 22 28 31 27 25 19 23 24 26 30 35 38 38 38 37 36 34 31
1 3 4 5 4 2 15 4 5 4 4 2 0 2 5 4 7 9 10 11 14 14 19 21 23 24 26 28 28 27 25 33 27 19 19 25 30 32 33 35 34 33 33 30
3 2 1 3 2 1 6 9 6 3 2 1 4 7 9 9 9 11 11 12 12 13 19 20 21 22 24 28 28 24 31 34 31 18 16 20 25 29 32 33 31 29 30 24
3 3 2 4 3 4 4 6 7 7 5 5 6 8 9 10 11 12 11 11 12 15 18 23 22 18 21 28 29 25 30 32 31 24 15 13 19 21 25 26 29 26 24 20
4 4 4 3 5 6 2 4 4 4 5 6 7 7 9 10 12 11 11 12 13 19 20 21 20 20 22 27 29 28 31 31 28 23 21 12 13 16 20 22 25 27 31 34
2 2 3 3 4 4 5 4 4 3 4 7 10 12 9 9 11 11 10 12 15 18 22 20 19 20 23 24 26 28 30 27 25 20 20 17 12 13 15 17 19 23 26 30
Wind_Direction
207 160 202 217 221 296 286 225 249 274 208 205 233 250 269 253 253 259 255 249 236 231 231 211 210 211 208 209 205 206 204 204 201 197 195 197 201 205 209 208 214 218 223 222
83 236 223 197 202 227 259 272 264 269 177 198 274 259 262 256 235 241 240 243 237 233 212 206 196 197 199 198 202 202 205 202 201 200 198 197 201 212 214 211 213 215 220 221
186 200 131 189 195 188 222 221 236 246 296 228 304 279 263 256 242 244 242 239 244 227 217 202 195 195 193 194 196 197 201 205 202 201 197 192 197 205 206 206 212 214 216 224
234 231 177 166 203 168 245 208 212 242 24 255 7 286 284 270 261 265 263 223 236 224 219 202 197 193 194 197 195 198 200 205 203 201 199 198 193 189 207 210 208 209 211 220
235 172 174 175 195 164 225 93 123 83 134 345 197 280 257 251 279 259 265 246 238 227 207 200 196 196 197 190 190 193 199 203 203 203 205 204 204 207 205 205 204 204 211 218
243 285 191 200 98 131 143 80 47 55 82 293 184 179 265 215 228 256 274 281 273 226 211 202 195 191 191 188 187 189 193 199 204 204 206 208 209 206 198 194 195 202 209 215
171 210 179 151 97 28 110 106 314 347 3 233 73 194 273 287 264 242 269 266 304 240 206 202 188 183 180 180 183 185 189 192 202 204 208 211 213 212 210 205 204 203 206 212
162 282 165 181 195 173 195 170 164 199 200 248 132 237 250 243 285 271 267 273 285 236 208 215 200 183 180 182 183 185 189 191 199 204 209 213 215 215 216 216 212 213 216 218
155 266 94 45 152 141 181 213 174 103 63 35 222 280 287 262 266 268 265 296 277 286 235 239 198 187 181 183 188 189 190 193 201 206 210 213 215 216 217 217 216 217 217 215
212 84 20 118 116 71 155 170 97 346 169 236 264 266 233 289 267 284 260 258 270 270 266 247 227 193 195 195 197 195 197 196 202 207 212 215 217 218 219 217 216 216 218 215
131 130 9 71 211 178 153 190 175 138 172 178 253 256 217 239 247 260 281 282 270 273 264 274 256 203 192 195 194 200 201 200 205 211 214 216 219 218 218 218 219 219 218 218
196 122 183 198 230 333 271 209 167 145 225 243 169 251 193 224 275 194 276 328 266 241 246 257 252 229 187 190 195 202 204 208 213 213 216 218 221 217 216 218 219 219 219 221
179 223 276 265 358 4 209 198 225 143 94 207 156 258 42 223 156 170 137 70 11 326 299 234 224 220 220 214 209 211 213 215 216 217 219 220 220 216 216 218 217 217 218 219
166 164 185 225 233 132 188 206 198 160 143 236 228 229 73 125 246 313 41 47 349 307 285 285 269 247 233 226 218 218 222 222 220 218 219 221 221 219 219 219 217 216 217 216
162 213 205 230 211 202 194 172 184 205 234 203 250 241 237 269 250 3 344 315 334 335 320 284 277 264 248 243 234 231 232 227 223 219 220 225 225 223 222 219 216 215 215 216
187 244 185 236 233 241 234 218 219 208 227 247 266 275 272 313 311 340 316 346 2 4 337 321 321 311 268 255 262 256 249 240 228 222 224 226 225 222 221 218 213 213 213 213
198 219 211 238 236 234 238 222 221 189 211 212 238 251 285 274 332 23 16 23 14 358 353 357 350 325 302 293 277 246 255 247 231 227 225 224 223 219 218 214 212 211 210 210
282 320 260 246 162 228 223 213 219 223 236 243 259 283 356 14 13 59 32 18 9 358 350 349 344 337 330 323 313 298 274 246 231 222 225 224 219 215 214 209 212 210 210 210
218 219 247 254 235 321 306 53 81 170 101 26 350 355 345 335 248 81 26 18 5 346 345 336 337 331 332 338 331 322 297 256 236 224 226 224 218 207 206 204 207 209 208 210
225 221 223 240 249 231 51 346 317 209 141 25 23 17 2 357 82 354 349 351 346 346 352 345 342 342 351 347 342 329 312 283 241 236 233 227 217 208 204 204 203 207 208 211
357 322 242 225 235 204 336 309 306 201 78 50 44 23 15 32 331 297 318 330 337 342 349 350 349 351 351 349 348 346 338 313 291 271 251 227 218 210 208 205 205 206 204 208
234 315 311 334 317 209 341 32 49 116 140 138 291 339 326 319 314 323 328 336 340 342 349 357 348 343 346 353 355 351 345 335 329 290 252 225 218 207 203 201 201 201 201 204
288 83 311 31 11 43 51 114 113 92 112 33 335 350 340 330 334 330 327 337 342 344 342 348 345 335 342 349 354 346 339 338 335 319 261 232 218 208 204 195 191 188 196 193
208 172 168 36 139 154 101 54 43 31 28 4 352 334 333 323 325 322 328 332 335 341 337 337 333 338 337 341 340 337 337 338 340 343 317 256 219 204 203 197 193 184 185 190
204 150 198 247 85 102 101 77 45 26 6 342 340 333 328 325 317 320 327 330 333 331 330 328 328 332 332 335 331 333 338 340 336 346 341 296 242 217 204 203 200 199 207 206
44 212 174 229 33 342 73 99 39 16 356 340 337 328 329 324 316 326 321 324 322 321 315 316 329 327 325 330 325 327 335 334 329 346 342 324 276 243 224 215 219 222 225 223